Year,Month,Day,Hour,Minute,Value (Times are PST for temperature in C)
2012,01,24,13,13,4.70
2012,01,24,13,14,4.70
2012,01,24,13,15,4.70
2012,01,24,13,16,4.70
2012,01,24,13,17,4.70
2012,01,24,13,18,4.70
2012,01,24,13,19,4.70
2012,01,24,13,20,4.70
2012,01,24,13,21,4.70
2012,01,24,13,22,4.70
2012,01,24,13,23,4.70
2012,01,24,13,24,4.70
2012,01,24,13,25,4.70
2012,01,24,13,26,4.70
2012,01,24,13,27,4.70
2012,01,24,13,28,4.70
2012,01,24,13,29,4.70
2012,01,24,13,30,4.70
2012,01,24,13,31,4.70
2012,01,24,13,32,4.70
2012,01,24,13,33,4.80
2012,01,24,13,34,4.80
2012,01,24,13,35,4.80
2012,01,24,13,36,4.80
2012,01,24,13,37,4.80
2012,01,24,13,38,4.80
2012,01,24,13,39,4.80
2012,01,24,13,40,4.80
2012,01,24,13,41,4.80
2012,01,24,13,42,4.80
2012,01,24,13,43,4.80
2012,01,24,13,44,4.80
2012,01,24,13,45,4.80
2012,01,24,13,46,4.80
2012,01,24,13,47,4.80
2012,01,24,13,48,4.80
2012,01,24,13,49,4.80
2012,01,24,13,50,4.80
2012,01,24,13,51,4.80
2012,01,24,13,52,4.80
2012,01,24,13,53,4.80
2012,01,24,13,54,4.80
2012,01,24,13,55,4.80
2012,01,24,13,56,4.80
2012,01,24,13,57,4.80
2012,01,24,13,58,4.80
2012,01,24,13,59,4.80
2012,01,24,14,00,4.80
2012,01,24,14,01,4.80
2012,01,24,14,02,4.80
2012,01,24,14,03,4.80
2012,01,24,14,04,4.80
2012,01,24,14,05,4.80
2012,01,24,14,06,4.90
2012,01,24,14,07,4.90
2012,01,24,14,08,4.90
2012,01,24,14,09,4.90
2012,01,24,14,10,4.90
2012,01,24,14,11,4.90
2012,01,24,14,12,4.90
2012,01,24,14,13,4.90
2012,01,24,14,14,4.90
2012,01,24,14,15,4.90
2012,01,24,14,16,4.90
2012,01,24,14,17,4.90
2012,01,24,14,18,4.90
2012,01,24,14,19,4.90
2012,01,24,14,20,4.90
2012,01,24,14,21,4.90
2012,01,24,14,22,4.90
2012,01,24,14,23,4.90
2012,01,24,14,24,4.90
2012,01,24,14,25,4.90
2012,01,24,14,26,4.90
2012,01,24,14,27,4.90
2012,01,24,14,28,5.00
2012,01,24,14,29,5.00
2012,01,24,14,30,5.00
2012,01,24,14,31,5.00
2012,01,24,14,32,5.00
2012,01,24,14,33,5.00
2012,01,24,14,34,5.00
2012,01,24,14,35,5.00
2012,01,24,14,36,5.00
2012,01,24,14,37,5.00
2012,01,24,14,38,5.00
2012,01,24,14,39,5.10
2012,01,24,14,40,5.10
2012,01,24,14,41,5.10
2012,01,24,14,42,5.10
2012,01,24,14,43,5.10
2012,01,24,14,44,5.10
2012,01,24,14,45,5.10
2012,01,24,14,46,5.10
2012,01,24,14,47,5.10
2012,01,24,14,48,5.10
2012,01,24,14,49,5.10
2012,01,24,14,50,5.10
2012,01,24,14,51,5.10
2012,01,24,14,52,5.10
2012,01,24,14,53,5.10
2012,01,24,14,54,5.10
2012,01,24,14,55,5.10
2012,01,24,14,56,5.10
2012,01,24,14,57,5.10
2012,01,24,14,58,5.10
2012,01,24,14,59,5.10
2012,01,24,15,00,5.10
2012,01,24,15,01,5.10
2012,01,24,15,02,5.10
2012,01,24,15,03,5.20
2012,01,24,15,04,5.20
2012,01,24,15,05,5.20
2012,01,24,15,06,5.20
2012,01,24,15,07,5.20
2012,01,24,15,08,5.20
2012,01,24,15,09,5.20
2012,01,24,15,10,5.20
2012,01,24,15,11,5.20
2012,01,24,15,12,5.20
2012,01,24,15,13,5.20
2012,01,24,15,14,5.20
2012,01,24,15,15,5.20
2012,01,24,15,16,5.20
2012,01,24,15,17,5.20
2012,01,24,15,18,5.20
2012,01,24,15,19,5.20
2012,01,24,15,20,5.20
2012,01,24,15,21,5.20
2012,01,24,15,22,5.30
2012,01,24,15,23,5.30
2012,01,24,15,24,5.30
2012,01,24,15,25,5.30
2012,01,24,15,26,5.30
2012,01,24,15,27,5.30
2012,01,24,15,30,5.30
2012,01,24,15,31,5.30
2012,01,24,15,32,5.30
2012,01,24,15,33,5.30
2012,01,24,15,34,5.30
2012,01,24,15,35,5.30
2012,01,24,15,36,5.30
2012,01,24,15,37,5.30
2012,01,24,15,38,5.30
2012,01,24,15,39,5.30
2012,01,24,15,40,5.30
2012,01,24,15,41,5.30
2012,01,24,15,42,5.30
2012,01,24,15,43,5.30
2012,01,24,15,44,5.30
2012,01,24,15,45,5.30
2012,01,24,15,46,5.30
2012,01,24,15,47,5.30
2012,01,24,15,48,5.30
2012,01,24,15,49,5.30
2012,01,24,15,50,5.30
2012,01,24,15,51,5.30
2012,01,24,15,52,5.30
2012,01,24,15,53,5.30
2012,01,24,15,54,5.30
2012,01,24,15,55,5.30
2012,01,24,15,56,5.30
2012,01,24,15,57,5.30
2012,01,24,15,58,5.30
2012,01,24,15,59,5.30
2012,01,24,16,00,5.30
2012,01,24,16,01,5.40
2012,01,24,16,02,5.40
2012,01,24,16,03,5.40
2012,01,24,16,04,5.40
2012,01,24,16,05,5.40
2012,01,24,16,06,5.40
2012,01,24,16,07,5.40
2012,01,24,16,08,5.40
2012,01,24,16,09,5.40
2012,01,24,16,10,5.40
2012,01,24,16,11,5.40
2012,01,24,16,12,5.40
2012,01,24,16,13,5.40
2012,01,24,16,14,5.40
2012,01,24,16,15,5.40
2012,01,24,16,16,5.40
2012,01,24,16,17,5.40
2012,01,24,16,18,5.40
2012,01,24,16,19,5.40
2012,01,24,16,20,5.40
2012,01,24,16,21,5.40
2012,01,24,16,22,5.50
2012,01,24,16,23,5.50
2012,01,24,16,24,5.50
2012,01,24,16,25,5.50
2012,01,24,16,26,5.60
2012,01,24,16,27,5.60
2012,01,24,16,28,5.60
2012,01,24,16,29,5.60
2012,01,24,16,30,5.60
2012,01,24,16,31,5.60
2012,01,24,16,32,5.60
2012,01,24,16,33,5.60
2012,01,24,16,34,5.60
2012,01,24,16,35,5.60
2012,01,24,16,36,5.60
2012,01,24,16,37,5.60
2012,01,24,16,38,5.60
2012,01,24,16,39,5.60
2012,01,24,16,40,5.60
2012,01,24,16,41,5.60
2012,01,24,16,42,5.70
2012,01,24,16,43,5.70
2012,01,24,16,44,5.70
2012,01,24,16,45,5.70
2012,01,24,16,46,5.70
2012,01,24,16,47,5.70
2012,01,24,16,48,5.70
2012,01,24,16,49,5.80
2012,01,24,16,50,5.80
2012,01,24,16,51,5.80
2012,01,24,16,52,5.80
2012,01,24,16,53,5.80
2012,01,24,16,54,5.80
2012,01,24,16,55,5.80
2012,01,24,16,56,5.80
2012,01,24,16,57,5.80
2012,01,24,16,58,5.80
2012,01,24,16,59,5.70
2012,01,24,17,00,5.70
2012,01,24,17,01,5.70
2012,01,24,17,02,5.70
2012,01,24,17,03,5.70
2012,01,24,17,04,5.70
2012,01,24,17,05,5.70
2012,01,24,17,06,5.70
2012,01,24,17,07,5.70
2012,01,24,17,08,5.80
2012,01,24,17,09,5.80
2012,01,24,17,10,5.80
2012,01,24,17,11,5.80
2012,01,24,17,12,5.80
2012,01,24,17,13,5.80
2012,01,24,17,14,5.80
2012,01,24,17,15,5.80
2012,01,24,17,16,5.80
2012,01,24,17,17,5.80
2012,01,24,17,18,5.80
2012,01,24,17,19,5.80
2012,01,24,17,20,5.80
2012,01,24,17,21,5.80
2012,01,24,17,22,5.80
2012,01,24,17,23,5.80
2012,01,24,17,24,5.70
2012,01,24,17,25,5.80
2012,01,24,17,26,5.70
2012,01,24,17,27,5.70
2012,01,24,17,28,5.70
2012,01,24,17,29,5.70
2012,01,24,17,30,5.70
2012,01,24,17,31,5.70
2012,01,24,17,32,5.70
2012,01,24,17,33,5.70
2012,01,24,17,34,5.70
2012,01,24,17,35,5.80
2012,01,24,17,36,5.80
2012,01,24,17,37,5.80
2012,01,24,17,38,5.80
2012,01,24,17,39,5.80
2012,01,24,17,40,5.80
2012,01,24,17,41,5.80
2012,01,24,17,42,5.80
2012,01,24,17,43,5.90
2012,01,24,17,44,5.90
2012,01,24,17,45,5.90
2012,01,24,17,46,5.90
2012,01,24,17,47,5.90
2012,01,24,17,48,5.90
2012,01,24,17,49,5.90
2012,01,24,17,50,5.90
2012,01,24,17,51,5.90
2012,01,24,17,52,5.90
2012,01,24,17,53,5.90
2012,01,24,17,54,5.90
2012,01,24,17,55,6.00
2012,01,24,17,56,6.00
2012,01,24,17,57,6.00
2012,01,24,17,58,6.00
2012,01,24,17,59,6.00
2012,01,24,18,00,6.00
2012,01,24,18,01,6.00
2012,01,24,18,02,6.00
2012,01,24,18,03,6.00
2012,01,24,18,04,6.10
2012,01,24,18,05,6.10
2012,01,24,18,06,6.10
2012,01,24,18,07,6.10
2012,01,24,18,08,6.10
2012,01,24,18,09,6.10
2012,01,24,18,10,6.10
2012,01,24,18,11,6.00
2012,01,24,18,12,5.90
2012,01,24,18,13,5.90
2012,01,24,18,14,5.90
2012,01,24,18,15,5.90
2012,01,24,18,16,5.80
2012,01,24,18,17,5.80
2012,01,24,18,18,5.80
2012,01,24,18,19,5.90
2012,01,24,18,20,5.90
2012,01,24,18,21,5.90
2012,01,24,18,22,5.90
2012,01,24,18,23,5.80
2012,01,24,18,24,5.80
2012,01,24,18,25,5.80
2012,01,24,18,26,5.80
2012,01,24,18,27,5.70
2012,01,24,18,28,5.70
2012,01,24,18,29,5.60
2012,01,24,18,30,5.60
2012,01,24,18,31,5.60
2012,01,24,18,32,5.60
2012,01,24,18,33,5.60
2012,01,24,18,34,5.60
2012,01,24,18,35,5.60
2012,01,24,18,36,5.70
2012,01,24,18,37,5.70
2012,01,24,18,38,5.70
2012,01,24,18,39,5.70
2012,01,24,18,40,5.70
2012,01,24,18,41,5.70
2012,01,24,18,42,5.70
2012,01,24,18,43,5.80
2012,01,24,18,44,5.90
2012,01,24,18,45,5.90
2012,01,24,18,46,6.00
2012,01,24,18,47,6.00
2012,01,24,18,48,6.10
2012,01,24,18,49,6.20
2012,01,24,18,50,6.20
2012,01,24,18,51,6.20
2012,01,24,18,52,6.10
2012,01,24,18,53,6.00
2012,01,24,18,54,5.90
2012,01,24,18,55,5.90
2012,01,24,18,56,5.80
2012,01,24,18,57,5.80
2012,01,24,18,58,5.80
2012,01,24,18,59,5.80
2012,01,24,19,00,5.80
2012,01,24,19,01,5.80
2012,01,24,19,02,5.70
2012,01,24,19,03,5.70
2012,01,24,19,04,5.70
2012,01,24,19,05,5.70
2012,01,24,19,06,5.80
2012,01,24,19,07,5.80
2012,01,24,19,08,5.80
2012,01,24,19,09,5.70
2012,01,24,19,10,5.80
2012,01,24,19,11,5.90
2012,01,24,19,12,5.90
2012,01,24,19,13,5.90
2012,01,24,19,14,5.90
2012,01,24,19,15,5.90
2012,01,24,19,16,5.80
2012,01,24,19,17,5.80
2012,01,24,19,18,6.00
2012,01,24,19,19,6.10
2012,01,24,19,20,6.20
2012,01,24,19,21,6.20
2012,01,24,19,22,6.10
2012,01,24,19,23,6.20
2012,01,24,19,24,6.30
2012,01,24,19,25,6.50
2012,01,24,19,26,6.50
2012,01,24,19,27,6.50
2012,01,24,19,28,6.70
2012,01,24,19,29,6.80
2012,01,24,19,30,6.80
2012,01,24,19,31,6.80
2012,01,24,19,32,6.80
2012,01,24,19,33,6.90
2012,01,24,19,34,7.00
2012,01,24,19,35,7.20
2012,01,24,19,36,7.30
2012,01,24,19,37,7.50
2012,01,24,19,38,7.70
2012,01,24,19,39,7.80
2012,01,24,19,40,8.00
2012,01,24,19,41,8.30
2012,01,24,19,42,8.40
2012,01,24,19,43,8.70
2012,01,24,19,44,8.80
2012,01,24,19,45,8.80
2012,01,24,19,46,8.90
2012,01,24,19,47,9.00
2012,01,24,19,48,9.10
2012,01,24,19,49,9.20
2012,01,24,19,50,9.20
2012,01,24,19,51,9.30
2012,01,24,19,52,9.40
2012,01,24,19,53,9.40
2012,01,24,19,54,9.50
2012,01,24,19,55,9.50
2012,01,24,19,56,9.40
2012,01,24,19,57,9.40
2012,01,24,19,58,9.30
2012,01,24,19,59,9.20
2012,01,24,20,00,9.10
2012,01,24,20,01,9.00
2012,01,24,20,02,8.90
2012,01,24,20,03,8.80
2012,01,24,20,04,8.60
2012,01,24,20,05,8.50
2012,01,24,20,06,8.50
2012,01,24,20,07,8.40
2012,01,24,20,08,8.40
2012,01,24,20,09,8.40
2012,01,24,20,10,8.50
2012,01,24,20,11,8.70
2012,01,24,20,12,8.80
2012,01,24,20,13,8.80
2012,01,24,20,14,8.80
2012,01,24,20,15,9.00
2012,01,24,20,16,9.10
2012,01,24,20,17,9.20
2012,01,24,20,18,9.30
2012,01,24,20,19,9.40
2012,01,24,20,20,9.50
2012,01,24,20,21,9.80
2012,01,24,20,22,10.00
2012,01,24,20,23,10.00
2012,01,24,20,24,10.00
2012,01,24,20,25,10.00
2012,01,24,20,26,10.00
2012,01,24,20,27,10.10
2012,01,24,20,28,10.10
2012,01,24,20,29,10.10
2012,01,24,20,30,10.00
2012,01,24,20,31,9.90
2012,01,24,20,32,9.90
2012,01,24,20,33,9.90
2012,01,24,20,34,9.90
2012,01,24,20,35,9.80
2012,01,24,20,36,9.80
2012,01,24,20,37,9.80
2012,01,24,20,38,9.80
2012,01,24,20,39,9.80
2012,01,24,20,40,9.80
2012,01,24,20,41,9.80
2012,01,24,20,42,9.80
2012,01,24,20,43,9.80
2012,01,24,20,44,9.80
2012,01,24,20,45,9.80
2012,01,24,20,46,9.80
2012,01,24,20,47,9.90
2012,01,24,20,48,9.90
2012,01,24,20,49,9.90
2012,01,24,20,50,10.00
2012,01,24,20,51,10.10
2012,01,24,20,52,10.10
2012,01,24,20,53,10.00
2012,01,24,20,54,10.00
2012,01,24,20,55,10.00
2012,01,24,20,56,9.90
2012,01,24,20,57,9.90
2012,01,24,20,58,9.90
2012,01,24,20,59,9.80
2012,01,24,21,00,9.80
2012,01,24,21,01,9.80
2012,01,24,21,02,9.80
2012,01,24,21,03,9.90
2012,01,24,21,04,9.90
2012,01,24,21,05,9.90
2012,01,24,21,06,9.90
2012,01,24,21,07,9.90
2012,01,24,21,08,9.80
2012,01,24,21,09,9.80
2012,01,24,21,10,9.80
2012,01,24,21,11,9.80
2012,01,24,21,12,9.80
2012,01,24,21,13,9.80
2012,01,24,21,14,9.70
2012,01,24,21,15,9.70
2012,01,24,21,16,9.70
2012,01,24,21,17,9.70
2012,01,24,21,18,9.60
2012,01,24,21,19,9.60
2012,01,24,21,20,9.50
2012,01,24,21,21,9.50
2012,01,24,21,22,9.40
2012,01,24,21,23,9.40
2012,01,24,21,24,9.40
2012,01,24,21,25,9.40
2012,01,24,21,26,9.40
2012,01,24,21,27,9.40
2012,01,24,21,28,9.40
